Terminal Aerodrome Forecast
Issued by NWS Sioux Falls, SD

Home | Current Version | Previous Version | Graphics & Text | Print | Product List | Glossary On
Versions: 1 2 3 4 5 6 7 8 9 10 11 12 13 14 15 16 17 18 19 20 21 22 23 24 25 26 27 28 29 30 31 32 33 34
000
FTUS43 KFSD 011138
TAFSUX
TAF
KSUX 011138Z 0112/0212 01022G32KT 1 1/2SM -SN OVC012
      TEMPO 0112/0115 3/4SM -SN BLSN OVC008
     FM011500 35022G32KT 2SM -SN SCT008 OVC015
     FM011800 35020G30KT 5SM -SN OVC025
     FM012200 34018G25KT P6SM SCT025 BKN050
     FM020200 33012KT P6SM SCT050
     FM020700 32006KT P6SM SKC=

USA.gov is the U.S. government's official web portal to all federal, state and local government web resources and services.